Meridian, MS

10:17 AM CDT on March 30, 2017 (GMT -0500)
Key

Weather History for KMEI - June, 2013

Change the Weather History Date:

Saturday, June 29, 2013

  Actual Average Record
Temperature  
Mean Temperature 80 °F 80 °F  
Max Temperature 90 °F 91 °F 104 °F (1988)
Min Temperature 69 °F 68 °F 58 °F (1974)
Degree Days  
Heating Degree Days 0 0  
Month to date heating degree days 0 0  
Since 1 June heating degree days 0 0  
Since 1 July heating degree days 2512 2553  
Cooling Degree Days 15 15  
Month to date cooling degree days 408 366  
Year to date cooling degree days 668 649  
Since 1 June cooling degree days 408 366  
Growing Degree Days 30 (Base 50)    
Moisture  
Dew Point 70 °F    
Average Humidity 75    
Maximum Humidity 100    
Minimum Humidity 50    
Precipitation  
Precipitation T in 0.16 in 2.32 in (1933)
Month to date precipitation 6.60 4.24  
Year to date precipitation 41.23 29.67  
Sea Level Pressure  
Sea Level Pressure 29.74 in    
Wind  
Wind Speed 4 mph (WSW)    
Max Wind Speed 17 mph    
Max Gust Speed 23 mph    
Visibility 10 miles    
Events Rain    
T = Trace of Precipitation, MM = Missing Value Source: NWS Daily Summary

Daily Weather History Graph

Daily Weather History Graph

Search for Another Location

Airport or City:

Trip Planner

Search our weather history database for the weather conditions in past years. The results will help you decide how hot, cold, wet, or windy it might be!

Date:

Astronomy

Jun. 29, 2013 Rise Set
Actual Time 5:51 AM CDT 8:05 PM CDT
Civil Twilight 5:22 AM CDT 8:34 PM CDT
Nautical Twilight 4:48 AM CDT 9:08 PM CDT
Astronomical Twilight 4:10 AM CDT 9:46 PM CDT
Moon No Moon Rise 12:36 PM CDT (6/29)
Length of Visible Light 15h 11m
Length of Day
14h 14m
Waning Gibbous, 55% of the Moon is Illuminated
Jun 29
Waning Gibbous
Jun 29
Last Quarter
Jul 8
New
Jul 15
First Quarter
Jul 22
Full

Hourly Weather History & Observations

Time (CDT) Temp. Heat Index Dew Point Humidity Pressure Visibility Wind Dir Wind Speed Gust Speed Precip Events Conditions
12:58 AM 72.0 °F - 70.0 °F 93% 29.76 in 10.0 mi Calm Calm - N/A   Clear
1:58 AM 72.0 °F - 70.0 °F 93% 29.76 in 10.0 mi Calm Calm - N/A   Clear
2:41 AM 71.6 °F - 69.8 °F 94% 29.77 in 10.0 mi South 3.5 mph - N/A   Partly Cloudy
2:58 AM 71.1 °F - 70.0 °F 96% 29.75 in 10.0 mi South 3.5 mph - N/A   Clear
3:58 AM 71.1 °F - 69.1 °F 93% 29.75 in 10.0 mi South 3.5 mph - N/A   Clear
4:58 AM 70.0 °F - 69.1 °F 97% 29.75 in 10.0 mi Calm Calm - N/A   Clear
5:58 AM 69.1 °F - 68.0 °F 96% 29.75 in 9.0 mi Calm Calm - N/A   Clear
6:58 AM 72.0 °F - 69.1 °F 91% 29.77 in 10.0 mi Calm Calm - N/A   Clear
7:06 AM 71.6 °F - 69.8 °F 94% 29.79 in 10.0 mi Calm Calm - N/A   Partly Cloudy
7:58 AM 73.9 °F - 70.0 °F 87% 29.78 in 10.0 mi Calm Calm - N/A   Clear
8:58 AM 78.1 °F - 72.0 °F 81% 29.78 in 10.0 mi Calm Calm - N/A   Clear
9:58 AM 81.0 °F 85.8 °F 73.0 °F 77% 29.78 in 10.0 mi SW 3.5 mph - N/A   Mostly Cloudy
10:58 AM 84.0 °F 91.2 °F 73.9 °F 72% 29.76 in 10.0 mi SW 4.6 mph - N/A   Partly Cloudy
11:58 AM 87.1 °F 92.8 °F 71.1 °F 59% 29.75 in 10.0 mi West 6.9 mph - N/A   Partly Cloudy
12:58 PM 89.1 °F 96.0 °F 72.0 °F 57% 29.73 in 10.0 mi West 9.2 mph - N/A   Partly Cloudy
1:58 PM 89.1 °F 94.1 °F 70.0 °F 53% 29.72 in 10.0 mi West 12.7 mph 17.3 mph N/A   Clear
2:58 PM 87.1 °F 92.0 °F 70.0 °F 57% 29.70 in 10.0 mi WNW 9.2 mph 19.6 mph 0.00 in Rain Light Rain
3:06 PM 89.6 °F 94.7 °F 69.8 °F 52% 29.71 in 10.0 mi West 6.9 mph - 0.00 in   Mostly Cloudy
3:58 PM 88.0 °F 92.9 °F 70.0 °F 55% 29.70 in 10.0 mi West 8.1 mph - 0.00 in   Clear
4:58 PM 87.1 °F 92.0 °F 70.0 °F 57% 29.68 in 10.0 mi NW 6.9 mph - N/A   Mostly Cloudy
5:58 PM 88.0 °F 90.3 °F 66.0 °F 48% 29.69 in 10.0 mi NW 9.2 mph - N/A   Clear
6:58 PM 84.9 °F 87.6 °F 66.9 °F 55% 29.70 in 10.0 mi NW 5.8 mph - N/A   Clear
7:58 PM 79.0 °F - 70.0 °F 74% 29.70 in 10.0 mi Calm Calm - N/A   Clear
8:58 PM 75.0 °F - 71.1 °F 87% 29.72 in 10.0 mi South 3.5 mph - N/A   Clear
9:58 PM 73.9 °F - 72.0 °F 93% 29.74 in 10.0 mi SSW 4.6 mph - N/A   Clear
10:58 PM 72.0 °F - 71.1 °F 97% 29.75 in 10.0 mi South 3.5 mph - N/A   Clear
11:58 PM 72.0 °F - 71.1 °F 97% 29.74 in 10.0 mi SSW 3.5 mph - N/A   Clear